{"data":{"norad_id":41036,"intl_designator":"2015-068A","name":"TELSTAR 12V","alt_names":[],"object_type":"PAYLOAD","status":"ACTIVE","operator":null,"country":"CA","launch_date":"2015-11-24","launch_site_code":"TANSC","launch_vehicle":null,"mission":null,"orbit_class":"UNKNOWN","rcs_meters":29.9526,"size_class":null,"mass_kg":null,"dimensions":null,"purposes":["comms"],"wikipedia_slug":null,"has_3d_model":false,"image_url":null,"decayed_at":null,"tle_current":{"epoch":"2026-09-20T03:09:51.018336Z","epoch_age_seconds":53861,"freshness":"FRESH","line1":"1 41036U 15068A   26263.13184049 -.00000123  00000+0  00000+0 0  9998","line2":"2 41036   0.0174 209.9003 0002204 317.5783 224.0271  1.00272752 39571","mean_motion":1.00272752,"eccentricity":0.0002204,"inclination_deg":0.0174,"raan_deg":209.9003,"arg_perigee_deg":317.5783,"mean_anomaly_deg":224.0271,"bstar":0,"rev_number":3957,"period_min":1436.0830547465,"perigee_km":35777.030830989,"apogee_km":35795.616925344,"semimajor_km":42164.460878166,"source":"CELESTRAK","updated_at":"2026-09-20T09:00:35.221661Z"}}}